Location: Rotheul
(50.2849°N, 11.2349°E)
Time: 09:16:46
(UTC+01:00)

ISS - Pass Details

Date: 11 November 2018
Orbit: 401 x 408 km, 51.6° (Epoch: 20 November)

Event Time Altitude Azimuth Distance (km) Brightness Sun altitude
Exits shadow 06:41:19 - 268° (W) 1,654 -1.3 -6.8°
Reaches altitude 10° 06:41:59 10° 260° (W) 1,462 -1.5 -6.7°
Maximum altitude 06:44:04 16° 220° (SW) 1,158 -1.7 -6.4°
Drops below altitude 10° 06:46:08 10° 181° (S) 1,459 -0.7 -6.1°
Sets 06:48:46 0° 158° (SSE) 2,316 0.7 -5.7°
